Flag for Austria Weather for the Past 2 Weeks in Bruck an der Leitha, Lower Austria, Austria

Now
37 °F

Low clouds.


Feels Like: 32 °F
Forecast: 41 / 47 °F
Wind: 6 mph from Southeast

Location: Wien / Schwechat-Flughafen

Current Time: Feb 14, 2016 at 10:04:56 AM

Latest Report: Feb 14, 2016 at 9:00 AM


Visibility: 6 mi

Pressure: 29.35 "Hg

Humidity: 93%

Dew point: 35 °F

Location of Bruck an der LeithaLocation

Historic Weather in Bruck an der Leitha — Graph

°F

Bruck an der Leitha Temperature Yesterday

Maximum temperature yesterday: 44 °F (at 3:00 PM)
Minimum temperature yesterday: 35 °F (at 6:00 AM)
Average temperature yesterday: 39 °F

High & Low Weather Summary for the Past Weeks

 TemperatureHumidityPressure
High59 °F (Feb 7, 2:00 PM)100% (Jan 30, 4:00 PM)30.39 "Hg (Jan 30, 4:00 PM)
Low31 °F (Feb 12, 7:00 AM)42% (Feb 7, 2:00 PM)29.29 "Hg (Feb 10, 12:00 AM)
Average43 °F76%29.87 "Hg
* Reported Jan 30 4:00 PM — Feb 14 8:00 AM, Bruck an der Leitha, Weather by CustomWeather, © 2016

Note: Actual official high and low records may vary slightly from our data, if they occured in-between our weather recording intervals... More about our weather records

Advertising

Bruck an der Leitha Weather History for the Previous 24 Hours

 ConditionsComfort  
Time TempWeatherWind HumidityBarometerVisibility
8:00 AM
Sun, Feb 14
36 °FLow clouds.3 mph96%29.38 "Hg4 mi
7:00 AM35 °FLow clouds.N/A98%29.38 "Hg2 mi
6:00 AM35 °FLow clouds.3 mph98%29.35 "Hg2 mi
5:00 AM35 °FLow clouds.3 mph98%29.35 "Hg3 mi
4:00 AM35 °FLow clouds.5 mph98%29.32 "Hg2 mi
3:00 AM35 °FLow clouds.N/A99%29.32 "Hg3 mi
2:00 AM36 °FLow clouds.N/A96%29.32 "Hg5 mi
1:00 AM36 °FLow clouds.6 mph94%29.32 "Hg6 mi
10:00 PM
Sat, Feb 13
37 °FPassing clouds.8 mph92%29.32 "Hg6 mi
9:00 PM38 °FPassing clouds.6 mph91%29.35 "Hg6 mi
8:00 PM38 °FOvercast.6 mph89%29.38 "Hg7 mi
7:00 PM39 °FOvercast.5 mph86%29.38 "Hg12 mi
6:00 PM39 °FPassing clouds.3 mph82%29.38 "Hg17 mi
5:00 PM43 °FScattered clouds.N/A65%29.38 "Hg25 mi
4:00 PM44 °FPassing clouds.5 mph66%29.38 "Hg25 mi
3:00 PM44 °FScattered clouds.5 mph64%29.38 "Hg19 mi
2:00 PM44 °FScattered clouds.3 mph63%29.38 "Hg22 mi
1:00 PM44 °FScattered clouds.5 mph65%29.38 "Hg19 mi
12:00 PM42 °FPartly sunny.N/A69%29.41 "Hg16 mi
11:00 AM39 °FOvercast.3 mph78%29.41 "Hg16 mi
10:00 AM38 °FOvercast.3 mph85%29.44 "Hg22 mi
Weather by CustomWeather, © 2016

See weather overviewHow to use our weather pages